Location: Unspecified
(0.0000°N, 0.0000°E)
Time: 18:50:53
(UTC+00:00)

ISS - Pass Details

Date: 16 November 2017
Orbit: 402 x 407 km, 51.6° (Epoch: 21 November)

Event Time Altitude Azimuth Distance (km) Brightness Sun altitude
Rises 19:27:29 0° 198° (SSW) 2,323 0.6 -24.2°
Reaches altitude 10° 19:29:47 10° 184° (S) 1,460 -0.7 -24.7°
Enters shadow 19:30:03 12° 182° (S) 1,373 -0.9 -24.8°
